Simultaneous Nadir Overpasses (SNOs) Predictions

Prediction of SNOs between NOAA-19 and TERRA Satellite Orbit:

Table of predicted SNOs for the next 14.0 days since TLE Epoch: 3/1/2025
Index Date (NOAA-19) Time (NOAA-19) Lat,Lon (NOAA-19) SZA (NOAA-19 ) Date (TERRA) Time (TERRA) Lat,Lon (TERRA) SZA (TERRA ) Distance(km) Time Diff (sec)
1 03/01/2025 17:12:24 -67.48,-135.41 72.18 03/01/2025 17:12:42 -67.48,-135.39 72.14 0.95 18
2 03/01/2025 18:01:36 61.77, 37.57 112.43 03/01/2025 18:00:23 61.75, 37.31 112.20 13.57 73
3 03/03/2025 20:10:53 -67.84, 179.58 73.19 03/03/2025 20:11:06 -67.84, 179.59 73.17 0.14 13
4 03/03/2025 20:56:50 51.15, -0.41 119.79 03/03/2025 20:55:38 51.02, -1.40 119.15 70.89 72
5 03/05/2025 23:09:25 -68.38, 134.33 74.36 03/05/2025 23:09:32 -68.37, 134.38 74.33 2.20 7
6 03/08/2025 02:07:52 -68.67, 89.40 75.33 03/08/2025 02:07:53 -68.66, 89.43 75.31 1.39 1
7 03/10/2025 05:06:14 -68.70, 44.81 76.08 03/10/2025 05:06:09 -68.71, 44.76 76.11 2.37 5
8 03/12/2025 08:04:48 -69.38, -0.71 77.41 03/12/2025 08:04:35 -69.37, -0.66 77.40 2.60 13
9 03/14/2025 10:14:18 75.65, 133.69 95.98 03/14/2025 10:15:31 75.82, 134.75 96.26 34.91 73



Historial Predications of SNOs between NOAA-19 and TERRA
